Flag for India Weather past 2 weeks in Lucknow, Uttar Pradesh, India

Now
86 °F

Haze.


Feels Like: 97 °F
Forecast: 80 / 101 °F
Wind: No wind

Location: Lucknow / Amausi

Current Time: Sep 2, 2015 at 11:34:43 PM

Latest Report: Sep 2, 2015 at 10:00 PM


Visibility: 2 mi

Pressure: 29.65 "Hg

Humidity: 75%

Dew point: 77 °F

Location of LucknowLocation

Historic Weather in Lucknow — Graph

°F

Lucknow temperature yesterday

Maximum temperature yesterday: 99 °F (at 2:00 PM)
Minimum temperature yesterday: 82 °F (at 3:00 AM)
Average temperature yesterday: 90 °F

Past Weeks' High & Low Weather Summary

 TemperatureHumidityPressure
High99 °F (Aug 26, 1:00 PM)100% (Aug 22, 5:30 AM)29.68 "Hg (Aug 22, 5:30 AM)
Low75 °F (Aug 22, 8:30 AM)50% (Aug 25, 2:30 PM)29.50 "Hg (Aug 22, 5:00 PM)
Average88 °F78%29.58 "Hg
* Reported Aug 18 10:00 PM — Sep 2 10:00 PM, Lucknow, Weather by CustomWeather, © 2015

Note: Actual official high and low records may vary slightly from our data, if they occured in-between our weather recording intervals... More about our weather records

Advertising

Lucknow weather history for previous 24 hours

 ConditionsComfort  
Time TempWeatherWind HumidityBarometerVisibility
10:00 PM
Wed, Sep 2
86 °FHaze.No wind75%29.65 "Hg2 mi
9:00 PM88 °FHaze.No wind70%29.62 "Hg2 mi
8:30 PM88 °FHaze.No wind70%29.59 "Hg2 mi
8:00 PM88 °FHaze.No wind70%29.59 "Hg3 mi
7:30 PM88 °FHaze.No wind75%29.59 "Hg3 mi
7:00 PM90 °FHaze.2 mph71%29.56 "Hg3 mi
6:30 PM91 °FHaze.2 mph67%29.56 "Hg3 mi
6:00 PM93 °FHaze.3 mph63%29.53 "Hg3 mi
5:30 PM95 °FHaze.7 mph56%29.53 "Hg3 mi
5:00 PM95 °FHaze.7 mph56%29.53 "Hg3 mi
4:30 PM97 °FHaze.10 mph56%29.53 "Hg3 mi
4:00 PM97 °FScattered clouds.12 mph56%29.53 "Hg3 mi
3:30 PM99 °FScattered clouds.12 mph53%29.56 "Hg3 mi
2:30 PM97 °FHaze.12 mph56%29.56 "Hg3 mi
2:00 PM97 °FHaze.12 mph56%29.56 "Hg3 mi
1:00 PM97 °FHaze.10 mph56%29.59 "Hg3 mi
12:30 PM95 °FHaze.12 mph63%29.59 "Hg3 mi
12:00 PM95 °FHaze.8 mph63%29.59 "Hg3 mi
11:30 AM95 °FHaze.9 mph63%29.59 "Hg3 mi
11:00 AM95 °FHaze.10 mph60%29.62 "Hg3 mi
10:30 AM93 °FHaze.12 mph59%29.62 "Hg3 mi
10:00 AM91 °FHaze.12 mph67%29.62 "Hg3 mi
9:30 AM90 °FHaze.10 mph67%29.62 "Hg3 mi
9:00 AM90 °FHaze.10 mph67%29.62 "Hg3 mi
8:30 AM88 °FHaze.7 mph75%29.59 "Hg3 mi
8:00 AM86 °FHaze.6 mph75%29.62 "Hg2 mi
7:30 AM82 °FHaze.7 mph84%29.59 "Hg2 mi
7:00 AM82 °FHaze.6 mph84%29.59 "Hg2 mi
6:30 AM81 °FHaze.5 mph89%29.59 "Hg2 mi
6:00 AM81 °FHaze.3 mph89%29.56 "Hg2 mi
5:30 AM82 °FHaze.5 mph84%29.56 "Hg2 mi
5:00 AM82 °FHaze.5 mph84%29.56 "Hg2 mi
4:00 AM82 °FHaze.2 mph84%29.56 "Hg2 mi
3:00 AM82 °FHaze.No wind84%29.56 "Hg2 mi
2:00 AM84 °FHaze.No wind79%29.56 "Hg2 mi
1:00 AM84 °FPassing clouds.No wind79%29.59 "Hg2 mi
12:00 AM84 °FPassing clouds.3 mph79%29.59 "Hg2 mi
Weather by CustomWeather, © 2015

See weather overviewHow to use our weather pages